Location: Bukit Setapoh
(2.2500°N, 113.8000°E)
Time: 23:23:31
(UTC+00:00)

SJ-11-01 - Pass Details

Date: 25 July 2021
Orbit: 683 x 702 km, 98.0° (Epoch: 18 September)

Event Time Altitude Azimuth Distance (km) Brightness Sun altitude
Rises 11:23:40 0° 168° (SSE) 3,061 7.3 -11.5°
Reaches altitude 10° 11:25:55 10° 168° (SSE) 2,145 6.5 -12.1°
Maximum altitude 11:30:37 90° 266° (W) 698 4.3 -13.2°
Drops below altitude 10° 11:35:20 10° 348° (NNW) 2,149 7.3 -14.3°
Sets 11:37:35 0° 348° (NNW) 3,066 8.1 -14.8°
